This is the latest recevied weather packets stored in our database for station/object AD8BW. If no packets are shown the sender has not sent any weather packets the latest 10 day(s).
| Time | Temp. | Humidity | Pressure | Rain* | Wind** | Luminosity | Snow |
|---|---|---|---|---|---|---|---|
| 1778131602 | 7.78° C | 60% | 1011.5 hPa | 0 mm | - | 0 W/m² | - |
| 1778130999 | 7.78° C | 59% | 1011.6 hPa | 0 mm | - | 0 W/m² | - |
| 1778130403 | 7.22° C | 61% | 1011.7 hPa | 0 mm | - | 0 W/m² | - |
| 1778129802 | 7.22° C | 63% | 1011.6 hPa | 0 mm | - | 0 W/m² | - |
| 1778129197 | 7.78° C | 63% | 1011.7 hPa | 0 mm | - | 0 W/m² | - |
| 1778128593 | 7.78° C | 60% | 1011.6 hPa | 0 mm | - | 0 W/m² | - |
| 1778127995 | 7.78° C | 60% | 1011.7 hPa | 0 mm | - | 0 W/m² | - |
| 1778127393 | 8.33° C | 59% | 1011.7 hPa | 0 mm | - | 0 W/m² | - |
| 1778126798 | 8.33° C | 59% | 1011.6 hPa | 0 mm | - | 0 W/m² | - |
| 1778126195 | 8.33° C | 59% | 1011.7 hPa | 0 mm | - | 0 W/m² | - |
| 1778125592 | 8.33° C | 59% | 1011.7 hPa | 0 mm | - | 0 W/m² | - |
| 1778124990 | 8.33° C | 59% | 1011.8 hPa | 0 mm | - | 0 W/m² | - |
| 1778124393 | 8.33° C | 60% | 1011.8 hPa | 0 mm | - | 0 W/m² | - |
| 1778123785 | 8.33° C | 61% | 1011.8 hPa | 0 mm | - | 0 W/m² | - |
| 1778123183 | 8.33° C | 59% | 1012.1 hPa | 0 mm | - | 0 W/m² | - |
| 1778122586 | 8.89° C | 59% | 1012.1 hPa | 0 mm | - | 0 W/m² | - |
| 1778121986 | 8.89° C | 59% | 1011.9 hPa | 0 mm | - | 0 W/m² | - |
| 1778121382 | 8.89° C | 60% | 1011.9 hPa | 0 mm | - | 0 W/m² | - |
| 1778120783 | 8.89° C | 60% | 1011.9 hPa | 0 mm | - | 0 W/m² | - |
| 1778120186 | 8.89° C | 60% | 1011.8 hPa | 0 mm | - | 0 W/m² | - |
| 1778119585 | 8.89° C | 59% | 1011.7 hPa | 0 mm | - | 0 W/m² | - |
| 1778118992 | 8.89° C | 59% | 1011.6 hPa | 0 mm | - | 0 W/m² | - |
| 1778118385 | 8.89° C | 58% | 1011.6 hPa | 0 mm | - | 0 W/m² | - |
| 1778117777 | 8.89° C | 58% | 1011.5 hPa | 0 mm | - | 0 W/m² | - |
| 1778117180 | 9.44° C | 56% | 1011.5 hPa | 0 mm | - | 0 W/m² | - |
* Rain latest hour (hover to see other rain measurements)
** Current wind speed in m/s (hover to see current wind gust speed)